This demonstration page uses our WeatherBlox Daily Observations layout. Learn more.

38.88101, -77.10428

Hourly Observations for August 26, 2016

Temp ( °F °C ) Dew Point ( °F °C ) Humidity (%) Winds ( mph kmh ) Pressure ( in mb ) Visibility ( mi km ) Precip ( " mm )
12:52 am 00:52 Clear 80 26.7 75 23.9 85 85 S 7 11 30.03 1017 10 16.09344 0 0
1:52 am 01:52 Clear 79 26.1 74 23.3 85 85 S 6 9 30.03 1017 10 16.09344 0 0
2:52 am 02:52 Clear 79 26.1 74 23.3 85 85 S 8 13 30 1016 10 16.09344 0 0
3:52 am 03:52 Mostly Clear 79 26.1 75 23.9 88 88 S 6 9 30 1016 10 16.09344 0 0
4:52 am 04:52 Mostly Clear 78 25.6 74 23.3 87 87 SSW 3 6 30.03 1017 10 16.09344 0 0
5:52 am 05:52 Mostly Clear 78 25.6 75 23.9 90 90 SSW 7 11 30.03 1017 10 16.09344 0 0
6:30 am 06:30 Partly Cloudy 79 26 73 23 84 84 SW 5 7 30.06 1018 10 16.09344 0 0
6:52 am 06:52 Partly Cloudy 77 25 75 23.9 94 94 SSW 5 7 30.06 1018 10 16.09344 0 0
7:52 am 07:52 Partly Cloudy 80 26.7 75 23.9 85 85 S 5 7 30.06 1018 10 16.09344 0 0
8:52 am 08:52 Partly Cloudy 86 30 75 23.9 70 70 NE 5 7 30.06 1018 10 16.09344 0 0
9:52 am 09:52 Partly Cloudy 89 31.7 72 22.2 57 57 NNW 9 15 30.06 1018 10 16.09344 0 0
10:52 am 10:52 Partly Cloudy 91 32.8 72 22.2 54 54 N 12 19 30.06 1018 10 16.09344 0 0
11:52 am 11:52 Partly Cloudy 91 32.8 71 21.7 52 52 N 8 13 30.06 1018 10 16.09344 0 0
12:52 pm 12:52 Mostly Cloudy 92 33.3 71 21.7 51 51 NW 13 20 30.06 1018 10 16.09344 0 0
1:52 pm 13:52 Mostly Cloudy 94 34.4 70 21.1 46 46 NW 13 20 30.06 1018 10 16.09344 0 0
2:52 pm 14:52 Mostly Cloudy 93 33.9 69 20.6 46 46 NNW 12 19 30.06 1018 10 16.09344 0 0
3:52 pm 15:52 Mostly Cloudy 94 34.4 68 20 43 43 NNW 13 20 30.03 1017 10 16.09344 0 0
4:52 pm 16:52 Mostly Cloudy 94 34.4 69 20.6 44 44 NNW 13 20 30.03 1017 10 16.09344 0 0
5:52 pm 17:52 Partly Cloudy 94 34.4 69 20.6 44 44 NNW 12 19 30.03 1017 10 16.09344 0 0
6:52 pm 18:52 Partly Cloudy 92 33.3 69 20.6 47 47 NW 10 17 30.03 1017 10 16.09344 0 0
7:52 pm 19:52 Mostly Clear 90 32.2 69 20.6 50 50 NW 8 13 30.03 1017 10 16.09344 0 0
8:52 pm 20:52 Mostly Clear 89 31.7 71 21.7 55 55 NNE 5 7 30.06 1018 10 16.09344 0 0
9:52 pm 21:52 Mostly Clear 86 30 74 23.3 67 67 Calm 30.06 1018 10 16.09344 0 0
10:52 pm 22:52 Mostly Clear 84 28.9 74 23.3 72 72 SE 3 6 30.09 1019 10 16.09344 0 0
11:52 pm 23:52 Partly Cloudy 85 29.4 72 22.2 65 65 Calm 30.09 1019 10 16.09344 0 0

Powered by AerisWeather